period_start,C,m1,H,J0,J1,J2,J3,J4,J5,JA,JB,JC,JD,JJ,JK,JN,#
2013-08-14 00:00:33,0.02,0.06,0.00,27.90,31.78,33.88,5.93,28.96,1014.37,2031.06,3437.12,3310.00,3595.82,350.65,318.58,2.17,0000 0000 0000 0000 000000
2013-08-14 00:01:34,0.04,0.06,0.00,27.95,31.77,33.88,5.79,28.67,1014.43,2031.17,3437.05,3310.01,3595.70,349.50,317.50,2.18,0000 0000 0000 0000 000000
2013-08-14 00:02:34,0.10,0.06,0.00,27.96,31.77,33.87,5.87,28.88,1014.30,2031.26,3437.02,3310.00,3595.65,349.92,317.83,2.18,0000 0000 0000 0000 000000
2013-08-14 00:03:34,0.09,0.06,0.00,27.98,31.77,33.81,5.89,29.00,1014.39,2031.39,3437.01,3310.00,3595.43,349.73,317.37,2.19,0000 0000 0000 0000 000000
2013-08-14 00:04:35,0.10,0.06,0.00,27.92,31.77,33.81,5.91,28.96,1014.34,2031.30,3437.00,3310.00,3595.23,350.12,318.07,2.19,0000 0000 0000 0000 000000
2013-08-14 00:05:35,-0.02,0.06,0.00,28.00,31.76,33.83,5.91,28.75,1014.42,2031.33,3437.00,3310.00,3595.16,350.45,318.32,2.20,0000 0000 0000 0000 000000
2013-08-14 00:06:35,0.03,0.06,0.00,28.09,31.75,33.83,5.77,28.63,1014.42,2031.41,3437.00,3310.00,3595.14,349.62,317.82,2.20,0000 0000 0000 0000 000000
2013-08-14 00:07:35,0.06,0.06,0.00,28.21,31.75,33.84,5.96,28.92,1014.38,2031.52,3436.99,3310.00,3595.09,350.77,318.35,2.21,0000 0000 0000 0000 000000
2013-08-14 00:08:35,0.10,0.06,0.00,28.23,31.75,33.84,5.95,28.96,1014.33,2031.71,3436.99,3310.00,3595.08,350.06,317.68,2.22,0000 0000 0000 0000 000000
2013-08-14 00:09:36,0.10,0.06,0.00,28.27,31.75,33.84,5.73,28.88,1014.27,2031.72,3436.99,3310.00,3595.08,349.38,317.00,2.22,0000 0000 0000 0000 000000
2013-08-14 00:10:36,0.02,0.06,0.00,28.26,31.75,33.81,5.92,28.75,1014.29,2031.77,3436.99,3310.00,3595.07,350.49,318.03,2.23,0000 0000 0000 0000 000000
2013-08-14 00:11:36,0.05,0.06,0.00,28.23,31.73,33.81,5.83,28.88,1014.30,2031.86,3436.95,3310.00,3595.04,350.87,318.53,2.23,0000 0000 0000 0000 000000
2013-08-14 00:12:36,0.08,0.06,0.00,28.18,31.73,33.81,5.77,28.83,1014.32,2031.92,3436.96,3310.00,3595.03,349.51,317.48,2.24,0000 0000 0000 0000 000000
2013-08-14 00:13:37,0.05,0.06,0.00,28.23,31.72,33.81,5.86,29.08,1014.30,2031.95,3436.96,3310.00,3595.01,351.45,318.93,2.25,0000 0000 0000 0000 000000
2013-08-14 00:14:37,0.01,0.06,0.00,28.24,31.72,33.80,5.92,28.79,1014.35,2031.93,3436.95,3310.01,3595.00,350.80,318.35,2.25,0000 0000 0000 0000 000000
2013-08-14 00:15:37,-0.01,0.06,0.00,28.19,31.72,33.89,5.83,28.83,1014.39,2031.94,3436.91,3310.02,3595.01,350.31,317.97,2.26,0000 0000 0000 0000 000000
2013-08-14 00:16:38,0.02,0.06,0.00,28.15,31.72,33.96,5.90,28.96,1014.34,2031.95,3436.61,3310.00,3595.00,349.99,317.70,2.26,0000 0000 0000 0000 000000
2013-08-14 00:17:38,0.05,0.06,0.00,28.15,31.70,34.07,6.02,28.83,1014.43,2031.95,3436.29,3310.00,3595.00,349.74,317.90,2.27,0000 0000 0000 0000 000000
2013-08-14 00:18:38,0.02,0.06,0.00,28.18,31.70,34.08,5.88,29.00,1014.37,2031.95,3436.16,3310.00,3595.00,349.99,317.69,2.28,0000 0000 0000 0000 000000
2013-08-14 00:19:38,0.02,0.06,0.00,28.16,31.70,34.09,5.91,28.71,1014.47,2031.97,3436.16,3310.00,3595.00,350.18,317.91,2.28,0000 0000 0000 0000 000000
2013-08-14 00:20:38,0.02,0.06,0.00,28.16,31.70,34.08,5.92,28.96,1014.52,2031.98,3436.09,3310.00,3595.00,350.23,317.97,2.29,0000 0000 0000 0000 000000
2013-08-14 00:21:38,0.00,0.06,0.00,28.16,31.70,34.08,5.88,28.79,1014.56,2031.99,3436.07,3310.00,3595.00,350.30,318.53,2.29,0000 0000 0000 0000 000000
2013-08-14 00:22:39,0.01,0.06,0.00,28.25,31.70,34.08,5.80,28.92,1014.63,2031.99,3436.05,3310.01,3595.00,348.65,316.49,2.30,0000 0000 0000 0000 000000
2013-08-14 00:23:39,0.00,0.06,0.00,28.24,31.70,34.10,6.10,29.00,1014.61,2031.99,3436.03,3310.00,3595.00,350.89,318.74,2.30,0000 0000 0000 0000 000000
2013-08-14 00:24:39,0.00,0.06,0.00,28.26,31.68,34.13,5.76,28.92,1014.56,2031.99,3436.01,3310.00,3595.00,349.24,317.00,2.31,0000 0000 0000 0000 000000
2013-08-14 00:25:39,0.00,0.06,0.00,28.26,31.67,34.09,5.91,28.92,1014.61,2031.99,3436.00,3310.00,3595.00,350.80,318.19,2.32,0000 0000 0000 0000 000000
2013-08-14 00:26:39,0.00,0.06,0.00,28.29,31.67,34.07,5.81,28.75,1014.61,2031.99,3436.01,3310.00,3595.00,349.96,317.22,2.32,0000 0000 0000 0000 000000
2013-08-14 00:27:39,0.00,0.06,0.00,28.27,31.67,34.07,5.92,28.92,1014.55,2031.99,3436.02,3310.00,3595.00,350.16,317.80,2.33,0000 0000 0000 0000 000000
2013-08-14 00:28:39,0.00,0.06,0.00,28.24,31.67,34.07,5.87,28.83,1014.60,2031.99,3436.03,3310.00,3595.00,350.87,318.47,2.33,0000 0000 0000 0000 000000
2013-08-14 00:29:40,0.00,0.06,0.00,28.22,31.67,34.07,5.95,28.58,1014.65,2031.99,3436.01,3310.02,3595.00,350.95,318.18,2.34,0000 0000 0000 0000 000000
2013-08-14 00:30:40,0.00,0.06,0.00,28.11,31.66,34.09,5.97,29.00,1014.65,2031.99,3436.00,3310.01,3594.99,350.66,318.45,2.35,0000 0000 0000 0000 000000
2013-08-14 00:31:40,0.00,0.06,0.00,27.98,31.65,34.05,5.92,28.92,1014.64,2031.99,3436.00,3310.00,3594.98,350.07,318.06,2.35,0000 0000 0000 0000 000000
2013-08-14 00:32:40,0.00,0.06,0.00,27.91,31.65,34.03,5.98,28.79,1014.66,2031.99,3436.00,3310.00,3594.99,350.60,318.24,2.36,0000 0000 0000 0000 000000
2013-08-14 00:33:40,0.00,0.06,0.00,27.82,31.65,34.02,5.94,28.92,1014.66,2031.99,3436.00,3310.01,3594.97,349.88,318.51,2.36,0000 0000 0000 0000 000000
2013-08-14 00:34:41,0.00,0.06,0.00,27.75,31.65,34.01,5.96,28.92,1014.66,2031.99,3436.00,3310.01,3594.97,349.63,318.10,2.37,0000 0000 0000 0000 000000
2013-08-14 00:35:41,0.00,0.06,0.00,27.81,31.64,34.04,5.92,29.00,1014.66,2031.99,3436.00,3310.01,3594.98,350.57,318.70,2.37,0000 0000 0000 0000 000000
2013-08-14 00:36:41,0.00,0.06,0.00,28.06,31.63,34.06,5.86,28.96,1014.65,2031.99,3436.00,3310.03,3594.98,348.98,316.70,2.38,0000 0000 0000 0000 000000
2013-08-14 00:37:41,0.00,0.06,0.00,28.19,31.62,34.06,5.65,28.67,1014.66,2031.99,3436.00,3310.00,3594.99,349.23,317.01,2.39,0000 0000 0000 0000 000000
2013-08-14 00:38:42,0.00,0.06,0.00,28.31,31.62,34.04,5.74,28.67,1014.66,2031.99,3436.00,3310.00,3594.98,349.47,317.42,2.39,0000 0000 0000 0000 000000
2013-08-14 00:39:42,0.00,0.06,0.00,28.37,31.62,34.02,5.87,28.79,1014.66,2031.99,3436.00,3310.03,3594.99,350.47,317.57,2.40,0000 0000 0000 0000 000000
2013-08-14 00:40:42,0.00,0.06,0.00,28.41,31.61,33.99,5.74,29.08,1014.63,2031.99,3436.00,3310.03,3594.98,350.01,317.55,2.40,0000 0000 0000 0000 000000
2013-08-14 00:41:42,0.00,0.06,0.00,28.45,31.60,33.98,5.92,28.83,1014.65,2031.99,3436.00,3310.01,3594.98,349.86,317.37,2.41,0000 0000 0000 0000 000000
2013-08-14 00:42:42,0.00,0.06,0.00,28.43,31.60,33.97,5.73,28.71,1014.60,2031.99,3435.99,3310.00,3594.98,349.80,317.32,2.42,0000 0000 0000 0000 000000
2013-08-14 00:43:43,0.00,0.06,0.00,28.41,31.60,33.95,5.82,28.96,1014.60,2031.99,3435.99,3310.02,3594.98,349.41,316.99,2.42,0000 0000 0000 0000 000000
2013-08-14 00:44:43,0.00,0.06,0.00,28.56,31.60,33.91,5.79,28.75,1014.56,2032.00,3435.99,3310.05,3594.99,348.68,316.19,2.43,0000 0000 0000 0000 000000
2013-08-14 00:45:43,0.00,0.06,0.00,28.52,31.60,33.89,5.72,28.88,1014.51,2032.00,3435.99,3310.06,3594.98,349.59,317.01,2.43,0000 0000 0000 0000 000000
2013-08-14 00:46:43,0.00,0.06,0.00,28.46,31.60,33.87,5.77,28.92,1014.44,2032.01,3435.98,3310.05,3594.98,348.91,316.44,2.44,0000 0000 0000 0000 000000
2013-08-14 00:47:43,0.00,0.06,0.00,28.41,31.58,33.88,5.99,28.92,1014.41,2032.01,3435.98,3310.04,3594.99,350.44,317.86,2.44,0000 0000 0000 0000 000000
2013-08-14 00:48:43,0.00,0.06,0.00,28.40,31.58,33.86,5.91,28.79,1014.51,2032.03,3435.98,3310.05,3594.99,350.41,317.97,2.45,0000 0000 0000 0000 000000
2013-08-14 00:49:44,0.01,0.06,0.00,28.41,31.57,33.87,5.89,28.88,1014.51,2032.03,3435.99,3310.07,3594.98,349.48,316.64,2.46,0000 0000 0000 0000 000000
2013-08-14 00:50:44,0.00,0.06,0.00,28.40,31.57,33.82,5.95,28.67,1014.57,2032.03,3435.97,3310.08,3594.98,350.52,318.00,2.46,0000 0000 0000 0000 000000
2013-08-14 00:51:44,0.00,0.06,0.00,28.42,31.57,33.83,5.76,28.79,1014.61,2032.03,3435.95,3310.09,3594.97,348.85,317.08,2.47,0000 0000 0000 0000 000000
2013-08-14 00:52:45,0.00,0.06,0.00,28.45,31.57,33.80,5.76,28.58,1014.54,2032.03,3435.90,3310.08,3594.95,349.91,317.34,2.47,0000 0000 0000 0000 000000
2013-08-14 00:53:45,0.01,0.06,0.00,28.41,31.57,33.78,5.72,28.50,1014.61,2032.02,3435.89,3310.07,3594.95,348.32,315.99,2.48,0000 0000 0000 0000 000000
2013-08-14 00:54:45,0.00,0.06,0.00,28.40,31.56,33.75,5.73,28.67,1014.63,2032.07,3435.93,3310.17,3594.97,349.48,317.56,2.49,0000 0000 0000 0000 000000
2013-08-14 00:55:45,0.00,0.06,0.00,28.39,31.55,33.70,5.87,28.50,1014.61,2032.07,3435.90,3310.14,3594.96,350.04,317.58,2.49,0000 0000 0000 0000 000000
2013-08-14 00:56:45,0.02,0.06,0.00,28.48,31.55,33.69,5.67,28.54,1014.63,2032.10,3435.89,3310.21,3594.94,349.52,317.02,2.50,0000 0000 0000 0000 000000
2013-08-14 00:57:46,0.01,0.06,0.00,28.47,31.55,33.71,5.77,28.50,1014.65,2032.08,3435.93,3310.29,3594.96,350.22,317.66,2.50,0000 0000 0000 0000 000000
2013-08-14 00:58:46,-0.03,0.06,0.00,28.47,31.55,33.69,5.87,28.75,1014.66,2032.18,3435.92,3310.42,3594.98,349.32,316.64,2.51,0000 0000 0000 0000 000000
2013-08-14 00:59:46,0.04,0.06,0.00,28.49,31.55,33.68,5.78,28.63,1014.66,2032.18,3435.89,3310.47,3594.97,349.82,317.07,2.52,0000 0000 0000 0000 000000
2013-08-14 01:00:46,0.00,0.06,0.00,28.46,31.55,33.70,5.77,28.38,1014.66,2032.21,3435.70,3310.34,3594.93,350.25,317.54,2.52,0000 0000 0000 0000 000000
2013-08-14 01:01:46,0.08,0.06,0.00,28.44,31.55,33.65,5.81,28.83,1014.66,2032.19,3435.43,3310.20,3594.85,349.80,317.27,2.53,0000 0000 0000 0000 000000
2013-08-14 01:02:47,0.06,0.07,0.00,28.48,31.55,33.65,5.88,28.71,1014.66,2032.22,3435.24,3310.13,3594.75,349.71,317.10,2.53,0000 0000 0000 0000 000000
2013-08-14 01:03:47,0.09,0.07,0.00,28.57,31.55,33.63,5.81,28.63,1014.66,2032.25,3435.13,3310.06,3594.73,349.60,317.01,2.54,0000 0000 0000 0000 000000
2013-08-14 01:04:47,0.02,0.07,0.00,28.67,31.54,33.63,5.75,28.54,1014.66,2032.18,3435.06,3310.04,3594.57,348.99,316.35,2.54,0000 0000 0000 0000 000000
2013-08-14 01:05:47,0.00,0.07,0.00,28.57,31.54,33.63,5.85,28.79,1014.66,2032.19,3435.05,3310.03,3594.45,349.88,317.26,2.55,0000 0000 0000 0000 000000
2013-08-14 01:06:48,0.00,0.07,0.00,28.56,31.53,33.62,5.81,28.75,1014.66,2032.21,3435.04,3310.03,3594.41,349.55,316.52,2.56,0000 0000 0000 0000 000000
2013-08-14 01:07:48,0.03,0.07,0.00,28.53,31.53,33.63,5.81,28.75,1014.66,2032.34,3435.04,3310.05,3594.42,349.68,317.13,2.56,0000 0000 0000 0000 000000
2013-08-14 01:08:48,0.14,0.07,0.00,28.48,31.52,33.62,5.77,28.63,1014.66,2032.42,3435.04,3310.07,3594.39,349.46,316.98,2.57,0000 0000 0000 0000 000000
2013-08-14 01:09:48,0.00,0.07,0.00,28.50,31.52,33.61,5.82,28.58,1014.66,2032.33,3435.02,3310.04,3594.26,350.14,317.93,2.57,0000 0000 0000 0000 000000
2013-08-14 01:10:49,-0.01,0.07,0.00,28.49,31.53,33.62,5.79,28.71,1014.66,2032.38,3435.02,3310.03,3594.21,349.26,317.30,2.58,0000 0000 0000 0000 000000
2013-08-14 01:11:49,0.05,0.07,0.00,28.53,31.52,33.60,5.77,28.83,1014.66,2032.53,3435.01,3310.04,3594.22,349.30,316.78,2.59,0000 0000 0000 0000 000000
2013-08-14 01:12:49,0.12,0.07,0.00,28.53,31.53,33.56,5.85,28.67,1014.66,2032.61,3435.03,3310.12,3594.25,350.47,317.84,2.59,0000 0000 0000 0000 000000
2013-08-14 01:13:49,0.03,0.07,0.00,28.52,31.52,33.57,5.83,28.50,1014.66,2032.73,3435.02,3310.19,3594.23,349.99,317.42,2.60,0000 0000 0000 0000 000000
2013-08-14 01:14:49,0.09,0.07,0.00,28.51,31.52,33.55,5.83,28.63,1014.67,2032.78,3435.01,3310.15,3594.18,349.87,317.00,2.60,0000 0000 0000 0000 000000
2013-08-14 01:15:50,0.03,0.07,0.00,28.49,31.52,33.55,5.93,28.79,1014.66,2032.82,3435.00,3310.10,3594.10,350.93,318.30,2.61,0000 0000 0000 0000 000000
2013-08-14 01:16:50,0.05,0.07,0.00,28.56,31.52,33.55,5.75,28.42,1014.66,2032.85,3435.00,3310.11,3594.05,350.41,317.37,2.61,0000 0000 0000 0000 000000
2013-08-14 01:17:50,0.01,0.07,0.00,28.55,31.52,33.56,5.88,28.71,1014.66,2032.81,3435.00,3310.06,3594.04,350.51,317.70,2.62,0000 0000 0000 0000 000000
2013-08-14 01:18:50,-0.03,0.07,0.00,28.54,31.52,33.53,5.76,28.88,1014.67,2032.86,3435.00,3310.05,3594.05,348.85,316.37,2.63,0000 0000 0000 0000 000000
2013-08-14 01:19:50,0.03,0.07,0.00,28.55,31.52,33.55,5.81,28.71,1014.67,2032.73,3435.00,3310.06,3594.02,349.28,316.99,2.63,0000 0000 0000 0000 000000
2013-08-14 01:20:51,-0.09,0.07,0.00,28.54,31.52,33.54,5.88,28.50,1014.66,2032.70,3435.00,3310.04,3594.01,349.51,317.32,2.64,0000 0000 0000 0000 000000
2013-08-14 01:21:51,0.01,0.07,0.00,28.55,31.52,33.52,5.84,28.71,1014.66,2032.73,3434.99,3310.05,3594.01,349.74,317.17,2.64,0000 0000 0000 0000 000000
2013-08-14 01:22:51,0.03,0.07,0.00,28.56,31.52,33.58,5.82,28.67,1014.67,2032.77,3434.99,3310.06,3594.01,350.21,317.55,2.65,0000 0000 0000 0000 000000
2013-08-14 01:23:51,0.00,0.07,0.00,28.59,31.52,33.55,5.95,28.63,1014.66,2032.79,3434.97,3310.02,3594.00,349.68,317.07,2.66,0000 0000 0000 0000 000000
2013-08-14 01:24:51,0.02,0.07,0.00,28.60,31.52,33.54,5.90,28.58,1014.67,2032.81,3434.96,3310.02,3594.00,350.08,317.42,2.66,0000 0000 0000 0000 000000
2013-08-14 01:25:51,0.01,0.07,0.00,28.60,31.52,33.53,5.76,28.54,1014.67,2032.85,3434.98,3310.04,3594.00,350.54,317.74,2.67,0000 0000 0000 0000 000000
2013-08-14 01:26:52,0.04,0.07,0.00,28.62,31.52,33.52,5.77,28.63,1014.67,2032.81,3434.97,3310.03,3594.00,349.91,317.06,2.67,0000 0000 0000 0000 000000
2013-08-14 01:27:52,-0.06,0.07,0.00,28.66,31.52,33.52,5.83,28.63,1014.66,2032.80,3434.95,3310.03,3594.00,351.12,318.03,2.68,0000 0000 0000 0000 000000
2013-08-14 01:28:52,0.00,0.07,0.00,28.68,31.52,33.49,5.92,28.75,1014.66,2032.69,3434.86,3310.01,3593.99,350.53,317.73,2.68,0000 0000 0000 0000 000000
2013-08-14 01:29:52,-0.09,0.07,0.00,28.67,31.52,33.46,5.93,28.75,1014.66,2032.67,3434.81,3310.00,3593.98,349.77,317.06,2.69,0000 0000 0000 0000 000000
2013-08-14 01:30:52,0.04,0.07,0.00,28.64,31.52,33.46,5.77,28.75,1014.67,2032.73,3434.82,3310.00,3593.99,349.60,316.94,2.70,0000 0000 0000 0000 000000
2013-08-14 01:31:53,0.04,0.07,0.00,28.56,31.52,33.46,5.79,28.58,1014.66,2032.77,3434.75,3310.00,3593.99,349.57,317.00,2.70,0000 0000 0000 0000 000000
2013-08-14 01:32:53,0.04,0.07,0.00,28.60,31.52,33.47,5.82,28.71,1014.67,2032.78,3434.53,3310.00,3593.98,350.03,317.37,2.71,0000 0000 0000 0000 000000
2013-08-14 01:33:53,0.05,0.07,0.00,28.57,31.52,33.48,5.88,28.71,1014.66,2032.83,3434.30,3310.00,3593.95,350.63,317.95,2.71,0000 0000 0000 0000 000000
2013-08-14 01:34:53,0.06,0.07,0.00,28.57,31.52,33.50,5.84,28.75,1014.66,2032.83,3434.16,3310.00,3593.91,349.60,317.01,2.72,0000 0000 0000 0000 000000
2013-08-14 01:35:53,0.00,0.07,0.00,28.54,31.52,33.50,5.88,28.75,1014.67,2032.69,3434.10,3310.00,3593.86,349.64,317.07,2.73,0000 0000 0000 0000 000000
2013-08-14 01:36:53,-0.10,0.07,0.00,28.53,31.52,33.50,5.79,28.75,1014.67,2032.66,3434.07,3310.00,3593.74,349.78,317.21,2.73,0000 0000 0000 0000 000000
2013-08-14 01:37:54,0.01,0.07,0.00,28.51,31.52,33.49,5.83,28.58,1014.67,2032.68,3434.03,3310.00,3593.61,350.82,318.06,2.74,0000 0000 0000 0000 000000
2013-08-14 01:38:54,0.01,0.07,0.00,28.59,31.52,33.50,5.83,28.96,1014.67,2032.75,3434.02,3310.00,3593.42,349.85,317.34,2.74,0000 0000 0000 0000 000000
2013-08-14 01:39:54,0.10,0.07,0.00,28.61,31.52,33.48,5.77,28.92,1014.67,2032.77,3434.00,3310.00,3593.36,349.90,317.25,2.75,0000 0000 0000 0000 000000
2013-08-14 01:40:54,0.03,0.07,0.00,28.55,31.52,33.47,5.94,28.96,1014.66,2032.69,3434.00,3310.00,3593.19,349.92,317.32,2.75,0000 0000 0000 0000 000000
2013-08-14 01:41:54,-0.05,0.07,0.00,28.50,31.52,33.48,5.83,29.00,1014.66,2032.57,3434.00,3309.98,3593.11,349.50,316.99,2.76,0000 0000 0000 0000 000000
2013-08-14 01:42:54,-0.03,0.07,0.00,28.50,31.52,33.50,5.77,28.83,1014.66,2032.51,3433.98,3309.95,3593.07,349.03,317.00,2.77,0000 0000 0000 0000 000000
2013-08-14 01:43:55,-0.07,0.07,0.00,28.52,31.52,33.49,5.76,28.63,1014.66,2032.55,3433.96,3309.93,3593.05,349.69,316.77,2.77,0000 0000 0000 0000 000000
2013-08-14 01:44:55,0.05,0.07,0.00,28.51,31.52,33.48,5.86,28.50,1014.67,2032.46,3433.95,3309.89,3593.02,349.44,316.87,2.78,0000 0000 0000 0000 000000
2013-08-14 01:45:55,-0.07,0.07,0.00,28.54,31.52,33.51,5.94,28.71,1014.67,2032.52,3433.96,3309.90,3593.01,351.10,318.40,2.78,0000 0000 0000 0000 000000
2013-08-14 01:46:55,0.05,0.07,0.00,28.53,31.52,33.55,5.80,29.04,1014.67,2032.49,3433.93,3309.92,3593.01,350.10,317.50,2.79,0000 0000 0000 0000 000000
2013-08-14 01:47:55,-0.05,0.07,0.00,28.50,31.52,33.48,5.76,28.71,1014.67,2032.53,3433.92,3309.96,3593.01,350.36,317.77,2.80,0000 0000 0000 0000 000000
2013-08-14 01:48:56,0.01,0.07,0.00,28.51,31.52,33.48,5.88,28.83,1014.67,2032.65,3433.90,3309.97,3593.00,349.47,317.04,2.80,0000 0000 0000 0000 000000
2013-08-14 01:49:56,0.13,0.07,0.00,28.50,31.52,33.48,5.88,28.63,1014.68,2032.73,3433.91,3309.96,3593.00,351.60,318.55,2.81,0000 0000 0000 0000 000000
2013-08-14 01:50:56,0.04,0.07,0.00,28.53,31.52,33.47,5.89,28.75,1014.68,2032.70,3433.86,3309.97,3593.00,349.79,317.30,2.81,0000 0000 0000 0000 000000
2013-08-14 01:51:56,-0.01,0.07,0.00,28.50,31.52,33.46,5.82,28.67,1014.67,2032.67,3433.80,3309.96,3593.00,349.22,316.58,2.82,0000 0000 0000 0000 000000
2013-08-14 01:52:57,0.00,0.07,0.00,28.50,31.52,33.43,5.75,28.58,1014.69,2032.78,3433.77,3309.94,3593.00,350.84,318.57,2.82,0000 0000 0000 0000 000000
2013-08-14 01:53:57,0.08,0.07,0.00,28.51,31.52,33.44,5.92,28.58,1014.68,2032.73,3433.45,3309.91,3593.00,351.12,318.46,2.83,0000 0000 0000 0000 000000
2013-08-14 01:54:57,0.00,0.07,0.00,28.48,31.52,33.44,5.81,28.79,1014.68,2032.64,3433.23,3309.86,3593.00,350.59,317.72,2.84,0000 0000 0000 0000 000000
2013-08-14 01:55:57,-0.02,0.07,0.00,28.48,31.52,33.44,5.83,28.63,1014.67,2032.61,3433.28,3309.90,3593.00,349.20,316.74,2.84,0000 0000 0000 0000 000000
2013-08-14 01:56:57,-0.06,0.07,0.00,28.53,31.52,33.43,5.76,28.67,1014.67,2032.61,3433.21,3309.88,3593.00,349.18,316.68,2.85,0000 0000 0000 0000 000000
2013-08-14 01:57:58,0.04,0.07,0.00,28.57,31.52,33.43,5.72,28.58,1014.67,2032.74,3433.15,3309.89,3593.00,349.86,317.26,2.85,0000 0000 0000 0000 000000
2013-08-14 01:58:58,0.11,0.07,0.00,28.54,31.52,33.43,5.82,28.67,1014.68,2032.76,3433.08,3309.91,3593.00,350.10,317.49,2.86,0000 0000 0000 0000 000000
2013-08-14 01:59:58,0.01,0.07,0.00,28.54,31.52,33.44,5.67,28.63,1014.68,2032.72,3433.04,3309.91,3593.00,349.66,317.09,2.87,0000 0000 0000 0000 000000
2013-08-14 02:00:58,-0.04,0.07,0.00,28.54,31.52,33.41,5.83,28.63,1014.67,2032.78,3433.04,3309.85,3592.99,349.72,317.15,2.87,0000 0000 0000 0000 000000
2013-08-14 02:01:58,0.11,0.07,0.00,28.52,31.52,33.38,5.88,28.75,1014.68,2032.85,3433.04,3309.79,3592.98,351.44,318.73,2.88,0000 0000 0000 0000 000000
2013-08-14 02:02:59,0.03,0.07,0.00,28.52,31.52,33.37,5.81,28.75,1014.66,2032.80,3433.02,3309.66,3592.95,349.88,317.23,2.88,0000 0000 0000 0000 000000
2013-08-14 02:03:59,0.00,0.07,0.00,28.49,31.52,33.37,5.87,28.88,1014.66,2032.76,3433.00,3309.47,3592.90,351.01,317.99,2.89,0000 0000 0000 0000 000000
2013-08-14 02:04:59,0.02,0.07,0.00,28.45,31.52,33.40,5.92,28.54,1014.66,2032.72,3433.00,3309.32,3592.72,351.94,319.48,2.90,0000 0000 0000 0000 000000
2013-08-14 02:05:59,0.02,0.07,0.00,28.47,31.52,33.43,5.94,28.79,1014.66,2032.68,3433.00,3309.18,3592.58,351.60,318.94,2.90,0000 0000 0000 0000 000000
2013-08-14 02:06:59,-0.00,0.07,0.00,28.47,31.52,33.41,5.85,29.00,1014.66,2032.69,3433.00,3309.21,3592.60,349.62,317.13,2.91,0000 0000 0000 0000 000000
2013-08-14 02:08:00,-0.00,0.07,0.00,28.50,31.52,33.42,5.75,29.00,1014.66,2032.71,3433.00,3309.20,3592.49,349.22,316.70,2.91,0000 0000 0000 0000 000000
2013-08-14 02:09:00,0.05,0.07,0.00,28.50,31.52,33.37,5.86,28.88,1014.66,2032.78,3433.00,3309.20,3592.40,349.03,316.57,2.92,0000 0000 0000 0000 000000
2013-08-14 02:10:00,0.06,0.07,0.00,28.49,31.52,33.40,5.77,28.88,1014.66,2032.76,3433.00,3309.30,3592.37,350.02,317.73,2.92,0000 0000 0000 0000 000000
2013-08-14 02:11:00,-0.04,0.07,0.00,28.55,31.52,33.45,5.87,28.63,1014.66,2032.80,3433.00,3309.28,3592.29,350.21,317.59,2.93,0000 0000 0000 0000 000000
2013-08-14 02:12:00,0.05,0.07,0.00,28.53,31.52,33.40,5.85,28.88,1014.66,2032.85,3432.96,3309.25,3592.19,350.74,318.10,2.94,0000 0000 0000 0000 000000
2013-08-14 02:13:01,0.05,0.07,0.00,28.52,31.52,33.36,5.91,28.92,1014.66,2032.83,3432.95,3309.19,3592.12,350.27,317.67,2.94,0000 0000 0000 0000 000000
2013-08-14 02:14:01,0.01,0.07,0.00,28.48,31.52,33.36,5.77,28.79,1014.66,2032.78,3432.87,3309.11,3592.06,350.08,317.54,2.95,0000 0000 0000 0000 000000
2013-08-14 02:15:01,-0.01,0.07,0.00,28.47,31.52,33.37,5.78,28.71,1014.66,2032.78,3432.79,3309.07,3592.03,349.46,317.16,2.95,0000 0000 0000 0000 000000
2013-08-14 02:16:01,0.01,0.07,0.00,28.52,31.52,33.42,5.75,28.42,1014.66,2032.78,3432.74,3309.05,3592.02,349.62,317.22,2.96,0000 0000 0000 0000 000000
2013-08-14 02:17:01,0.02,0.07,0.00,28.49,31.52,33.40,5.94,28.63,1014.66,2032.74,3432.47,3309.04,3592.00,350.70,318.07,2.97,0000 0000 0000 0000 000000
2013-08-14 02:18:02,0.01,0.07,0.00,28.49,31.52,33.40,5.78,28.83,1014.66,2032.67,3432.31,3309.02,3592.00,349.63,317.12,2.97,0000 0000 0000 0000 000000
2013-08-14 02:19:02,-0.06,0.07,0.00,28.54,31.52,33.38,5.87,29.04,1014.66,2032.63,3432.20,3309.01,3592.00,350.38,317.60,2.98,0000 0000 0000 0000 000000
2013-08-14 02:20:02,-0.00,0.07,0.00,28.52,31.52,33.38,5.77,29.00,1014.66,2032.57,3432.11,3309.01,3592.00,349.56,317.03,2.98,0000 0000 0000 0000 000000
2013-08-14 02:21:02,-0.06,0.07,0.00,28.52,31.52,33.38,5.79,28.54,1014.66,2032.53,3432.05,3309.00,3592.00,350.51,317.89,2.99,0000 0000 0000 0000 000000
2013-08-14 02:22:02,-0.01,0.07,0.00,28.50,31.52,33.38,5.81,28.63,1014.66,2032.56,3432.03,3309.01,3592.00,350.22,317.65,2.99,0000 0000 0000 0000 000000
2013-08-14 02:23:03,0.05,0.07,0.00,28.49,31.52,33.34,5.66,28.75,1014.66,2032.57,3432.02,3309.01,3592.00,349.06,316.22,3.00,0000 0000 0000 0000 000000
2013-08-14 02:24:03,0.00,0.07,0.00,28.49,31.52,33.31,5.89,28.83,1014.66,2032.57,3432.01,3309.00,3591.99,350.78,318.16,3.01,0000 0000 0000 0000 000000
2013-08-14 02:25:03,0.01,0.07,0.00,28.49,31.52,33.37,5.82,28.67,1014.66,2032.64,3432.00,3309.00,3591.98,349.38,316.90,3.01,0000 0000 0000 0000 000000
2013-08-14 02:26:03,0.07,0.07,0.00,28.47,31.52,33.38,5.86,28.63,1014.66,2032.72,3432.00,3309.00,3591.96,349.66,317.08,3.02,0000 0000 0000 0000 000000
2013-08-14 02:27:04,0.05,0.07,0.00,28.48,31.52,33.38,5.82,28.71,1014.66,2032.72,3432.00,3309.01,3591.96,349.74,317.27,3.02,0000 0000 0000 0000 000000
2013-08-14 02:28:04,-0.02,0.07,0.00,28.47,31.52,33.40,5.88,28.46,1014.67,2032.72,3432.00,3309.00,3591.91,350.15,317.90,3.03,0000 0000 0000 0000 000000
2013-08-14 02:29:04,0.01,0.07,0.00,28.43,31.52,33.37,5.93,28.63,1014.67,2032.78,3432.00,3309.00,3591.93,351.01,318.64,3.04,0000 0000 0000 0000 000000
2013-08-14 02:30:04,0.07,0.07,0.00,28.45,31.52,33.37,5.97,28.83,1014.66,2032.82,3432.00,3309.00,3591.88,351.10,318.50,3.04,0000 0000 0000 0000 000000
2013-08-14 02:31:05,0.02,0.07,0.00,28.42,31.52,33.35,5.98,28.67,1014.66,2032.75,3431.98,3309.00,3591.61,350.86,318.27,3.05,0000 0000 0000 0000 000000
2013-08-14 02:32:05,-0.01,0.07,0.00,28.45,31.52,33.33,5.74,28.75,1014.66,2032.81,3431.98,3309.00,3591.47,349.63,317.17,3.05,0000 0000 0000 0000 000000
2013-08-14 02:33:05,0.05,0.07,0.00,28.51,31.52,33.35,5.80,28.63,1014.66,2032.81,3431.98,3309.00,3591.47,350.28,317.69,3.06,0000 0000 0000 0000 000000
2013-08-14 02:34:06,-0.01,0.07,0.00,28.49,31.51,33.37,5.77,28.42,1014.68,2032.79,3431.95,3309.00,3591.35,350.23,317.62,3.07,0000 0000 0000 0000 000000
2013-08-14 02:35:06,0.01,0.07,0.00,28.45,31.51,33.41,5.86,28.54,1014.67,2032.74,3431.87,3309.00,3591.22,350.14,317.45,3.07,0000 0000 0000 0000 000000
2013-08-14 02:36:06,-0.02,0.07,0.00,28.41,31.51,33.41,6.00,28.71,1014.67,2032.78,3431.78,3309.00,3591.14,350.64,317.90,3.08,0000 0000 0000 0000 000000
2013-08-14 02:37:06,0.04,0.07,0.00,28.41,31.50,33.41,5.89,28.75,1014.67,2032.85,3431.75,3309.00,3591.11,350.16,317.85,3.08,0000 0000 0000 0000 000000